Zurück zum Katalog

SL-16 DEB

AktivLEO
NORAD 22422·DEBRIS·🇷🇺 Russia

Gestartet Dec 25, 1992 von Baikonur Cosmodrome

Loading…

Nächste Überflüge (nächste 24 Stunden)

TLE

AktuellSource: Space-Track

Epoche: Sep 14, 2026, 07:51 UTC

1 22422U 92093DP  26257.32729566  .00000186  00000-0  14935-3 0  9997
2 22422  71.1829 209.3120 0094209 296.8715 215.6443 14.00688541716872

Verfolge SL-16 DEB in Echtzeit mit AllMySat

Download on the App Store